Time,TemperatureF,DewpointF,PressureIn,WindDirection,WindDirectionDegrees,WindSpeedMPH,WindSpeedGustMPH,Humidity,HourlyPrecipIn,Conditions,Clouds,dailyrainin,SoftwareType,DateUTC
2013-02-21 00:02:00,37.0,-99.9,30.07,NE,48,0.0,0.0,-999,0.00,,,0.11,,2013-02-21 08:02:00,
2013-02-21 00:11:00,37.0,-99.9,30.07,NE,48,0.0,0.0,-999,0.00,,,0.11,,2013-02-21 08:11:00,
2013-02-21 00:21:00,37.0,-99.9,30.07,NE,48,0.0,0.0,-999,0.00,,,0.11,,2013-02-21 08:21:00,
2013-02-21 00:32:00,36.0,-99.9,30.09,NE,48,0.0,0.0,-999,0.00,,,0.11,,2013-02-21 08:32:00,
2013-02-21 00:42:00,37.0,-99.9,30.09,NE,48,0.0,0.0,-999,0.00,,,0.11,,2013-02-21 08:42:00,
2013-02-21 00:52:00,37.0,-99.9,30.09,NE,48,0.0,0.0,-999,0.00,,,0.11,,2013-02-21 08:52:00,
2013-02-21 01:02:00,37.0,-99.9,30.09,NE,48,0.0,0.0,-999,0.00,,,0.11,,2013-02-21 09:02:00,
2013-02-21 01:11:00,37.0,-99.9,30.09,NE,48,0.0,0.0,-999,0.00,,,0.11,,2013-02-21 09:11:00,
2013-02-21 01:22:00,38.0,-99.9,30.09,NE,44,0.0,0.0,-999,0.00,,,0.11,,2013-02-21 09:22:00,
2013-02-21 01:32:00,37.0,-99.9,30.09,NE,44,0.0,0.0,-999,0.00,,,0.11,,2013-02-21 09:32:00,
2013-02-21 01:42:00,38.0,-99.9,30.09,NE,44,0.0,0.0,-999,0.00,,,0.11,,2013-02-21 09:42:00,
2013-02-21 01:52:00,38.0,-99.9,30.09,NE,44,0.0,0.0,-999,0.00,,,0.11,,2013-02-21 09:52:00,
2013-02-21 02:01:00,38.0,-99.9,30.09,NE,48,2.0,0.0,-999,0.00,,,0.11,,2013-02-21 10:01:00,
2013-02-21 02:11:00,38.0,-99.9,30.09,NE,48,2.0,0.0,-999,0.00,,,0.11,,2013-02-21 10:11:00,
2013-02-21 02:21:00,38.0,-99.9,30.09,NNE,28,4.0,0.0,-999,0.00,,,0.11,,2013-02-21 10:21:00,
2013-02-21 02:31:00,38.0,-99.9,30.09,NE,45,0.0,0.0,-999,0.00,,,0.11,,2013-02-21 10:31:00,
2013-02-21 02:41:00,37.0,-99.9,30.08,NE,49,0.0,0.0,-999,0.00,,,0.11,,2013-02-21 10:41:00,
2013-02-21 02:51:00,37.0,-99.9,30.08,NE,49,0.0,0.0,-999,0.00,,,0.11,,2013-02-21 10:51:00,
2013-02-21 03:01:00,37.0,-99.9,30.08,NE,49,0.0,0.0,-999,0.00,,,0.11,,2013-02-21 11:01:00,
2013-02-21 03:11:00,37.0,-99.9,30.08,NE,49,0.0,0.0,-999,0.00,,,0.11,,2013-02-21 11:11:00,
2013-02-21 03:21:00,38.0,-99.9,30.07,NE,55,2.0,0.0,-999,0.00,,,0.11,,2013-02-21 11:21:00,
2013-02-21 03:31:00,38.0,-99.9,30.07,NE,56,0.0,6.0,-999,0.00,,,0.11,,2013-02-21 11:31:00,
2013-02-21 03:41:00,38.0,-99.9,30.07,NE,56,0.0,6.0,-999,0.00,,,0.11,,2013-02-21 11:41:00,
2013-02-21 03:52:00,38.0,-99.9,30.07,NNE,13,0.0,0.0,-999,0.00,,,0.11,,2013-02-21 11:52:00,
2013-02-21 04:01:00,38.0,-99.9,30.06,NNE,25,0.0,0.0,-999,0.00,,,0.11,,2013-02-21 12:01:00,
2013-02-21 04:11:00,37.0,-99.9,30.07,NNE,15,0.0,0.0,-999,0.00,,,0.11,,2013-02-21 12:11:00,
2013-02-21 04:22:00,37.0,-99.9,30.07,NNE,15,0.0,0.0,-999,0.00,,,0.11,,2013-02-21 12:22:00,
2013-02-21 04:32:00,38.0,-99.9,30.06,NE,38,1.0,0.0,-999,0.00,,,0.11,,2013-02-21 12:32:00,
2013-02-21 04:43:00,38.0,-99.9,30.06,NNE,20,2.0,0.0,-999,0.00,,,0.11,,2013-02-21 12:43:00,
2013-02-21 04:53:00,38.0,-99.9,30.06,NNE,20,2.0,0.0,-999,0.00,,,0.11,,2013-02-21 12:53:00,
2013-02-21 05:02:00,38.0,-99.9,30.06,ENE,63,2.0,8.0,-999,0.00,,,0.11,,2013-02-21 13:02:00,
2013-02-21 05:12:00,38.0,-99.9,30.06,ENE,63,2.0,8.0,-999,0.00,,,0.11,,2013-02-21 13:12:00,
2013-02-21 05:22:00,38.0,-99.9,30.06,ENE,63,2.0,8.0,-999,0.00,,,0.11,,2013-02-21 13:22:00,
2013-02-21 05:32:00,39.0,-99.9,30.06,NE,46,5.0,14.0,-999,0.00,,,0.11,,2013-02-21 13:32:00,
2013-02-21 05:42:00,39.0,-99.9,30.06,NE,52,0.0,0.0,-999,0.00,,,0.11,,2013-02-21 13:42:00,
2013-02-21 05:52:00,39.0,-99.9,30.06,NE,52,0.0,0.0,-999,0.00,,,0.11,,2013-02-21 13:52:00,
2013-02-21 06:02:00,39.0,-99.9,30.06,ENE,59,1.0,6.0,-999,0.00,,,0.11,,2013-02-21 14:02:00,
2013-02-21 06:11:00,39.0,-99.9,30.06,ENE,59,1.0,6.0,-999,0.00,,,0.11,,2013-02-21 14:11:00,
2013-02-21 06:22:00,39.0,-99.9,30.04,ESE,114,0.0,0.0,-999,0.00,,,0.11,,2013-02-21 14:22:00,
2013-02-21 06:32:00,38.0,-99.9,30.07,NE,48,3.0,0.0,-999,0.00,,,0.11,,2013-02-21 14:32:00,
2013-02-21 06:42:00,38.0,-99.9,30.08,ENE,60,0.0,0.0,-999,0.00,,,0.11,,2013-02-21 14:42:00,
2013-02-21 06:52:00,38.0,-99.9,30.08,ENE,60,0.0,0.0,-999,0.00,,,0.11,,2013-02-21 14:52:00,
2013-02-21 07:02:00,37.0,-99.9,30.09,ENE,60,0.0,0.0,-999,0.00,,,0.11,,2013-02-21 15:02:00,
2013-02-21 07:12:00,37.0,-99.9,30.09,ENE,60,0.0,0.0,-999,0.00,,,0.11,,2013-02-21 15:12:00,
2013-02-21 07:22:00,37.0,-99.9,30.09,ENE,60,0.0,0.0,-999,0.00,,,0.11,,2013-02-21 15:22:00,
2013-02-21 07:32:00,37.0,-99.9,30.09,NNE,15,0.0,0.0,-999,0.00,,,0.11,,2013-02-21 15:32:00,
2013-02-21 07:42:00,37.0,-99.9,30.09,NNE,15,0.0,0.0,-999,0.00,,,0.11,,2013-02-21 15:42:00,
2013-02-21 07:52:00,38.0,-99.9,30.09,East,86,0.0,0.0,-999,0.00,,,0.11,,2013-02-21 15:52:00,
2013-02-21 08:02:00,38.0,-99.9,30.10,East,86,0.0,0.0,-999,0.00,,,0.11,,2013-02-21 16:02:00,
2013-02-21 08:12:00,39.0,-99.9,30.11,East,86,0.0,0.0,-999,0.00,,,0.11,,2013-02-21 16:12:00,
2013-02-21 08:22:00,39.0,-99.9,30.11,East,86,0.0,0.0,-999,0.00,,,0.11,,2013-02-21 16:22:00,
2013-02-21 08:32:00,42.0,-99.9,30.11,East,80,0.0,0.0,-999,0.00,,,0.11,,2013-02-21 16:32:00,
2013-02-21 08:42:00,42.0,-99.9,30.11,East,80,0.0,0.0,-999,0.00,,,0.11,,2013-02-21 16:42:00,
2013-02-21 08:52:00,42.0,-99.9,30.11,East,80,0.0,0.0,-999,0.00,,,0.11,,2013-02-21 16:52:00,
2013-02-21 09:02:00,42.0,-99.9,30.12,ESE,107,1.0,0.0,-999,0.00,,,0.11,,2013-02-21 17:02:00,
2013-02-21 09:11:00,43.0,-99.9,30.12,ENE,77,1.0,0.0,-999,0.00,,,0.11,,2013-02-21 17:11:00,
2013-02-21 09:22:00,43.0,-99.9,30.12,ENE,77,1.0,0.0,-999,0.00,,,0.11,,2013-02-21 17:22:00,
2013-02-21 09:32:00,43.0,-99.9,30.14,East,101,0.0,0.0,-999,0.00,,,0.11,,2013-02-21 17:32:00,
2013-02-21 09:42:00,43.0,-99.9,30.14,East,101,0.0,0.0,-999,0.00,,,0.11,,2013-02-21 17:42:00,
2013-02-21 09:52:00,44.0,-99.9,30.11,East,87,0.0,0.0,-999,0.00,,,0.11,,2013-02-21 17:52:00,
2013-02-21 10:02:00,44.0,-99.9,30.14,East,87,0.0,0.0,-999,0.00,,,0.11,,2013-02-21 18:02:00,
2013-02-21 10:12:00,48.0,-99.9,30.12,ENE,75,0.0,0.0,-999,0.00,,,0.11,,2013-02-21 18:12:00,
2013-02-21 10:22:00,48.0,-99.9,30.12,ENE,75,0.0,0.0,-999,0.00,,,0.11,,2013-02-21 18:22:00,
2013-02-21 10:32:00,48.0,-99.9,30.13,NNE,31,1.0,0.0,-999,0.00,,,0.11,,2013-02-21 18:32:00,
2013-02-21 10:42:00,48.0,-99.9,30.13,NNE,31,1.0,0.0,-999,0.00,,,0.11,,2013-02-21 18:42:00,
2013-02-21 10:52:00,48.0,-99.9,30.13,NNE,31,1.0,0.0,-999,0.00,,,0.11,,2013-02-21 18:52:00,
2013-02-21 11:02:00,48.0,-99.9,30.11,SE,125,1.0,0.0,-999,0.00,,,0.11,,2013-02-21 19:02:00,
2013-02-21 11:12:00,48.0,-99.9,30.11,SE,125,1.0,0.0,-999,0.00,,,0.11,,2013-02-21 19:12:00,
2013-02-21 11:22:00,48.0,-99.9,30.14,ENE,73,1.0,0.0,-999,0.00,,,0.11,,2013-02-21 19:22:00,
2013-02-21 11:32:00,48.0,-99.9,30.13,East,97,1.0,5.0,-999,0.00,,,0.00,,2013-02-21 19:32:00,
2013-02-21 11:42:00,48.0,-99.9,30.13,East,97,1.0,5.0,-999,0.00,,,0.00,,2013-02-21 19:42:00,
2013-02-21 11:52:00,49.0,-99.9,30.13,North,359,2.0,0.0,-999,0.00,,,0.00,,2013-02-21 19:52:00,
2013-02-21 12:01:00,49.0,-99.9,30.13,North,359,2.0,0.0,-999,0.00,,,0.00,,2013-02-21 20:01:00,
2013-02-21 12:11:00,49.0,-99.9,30.13,South,188,0.0,0.0,-999,0.00,,,0.00,,2013-02-21 20:11:00,
2013-02-21 12:22:00,49.0,-99.9,30.13,South,188,0.0,0.0,-999,0.00,,,0.00,,2013-02-21 20:22:00,
2013-02-21 12:32:00,49.0,-99.9,30.12,ENE,70,0.0,0.0,-999,0.00,,,0.00,,2013-02-21 20:32:00,
2013-02-21 12:42:00,49.0,-99.9,30.12,ENE,70,0.0,0.0,-999,0.00,,,0.00,,2013-02-21 20:42:00,
2013-02-21 12:53:00,49.0,-99.9,30.13,East,97,0.0,0.0,-999,0.00,,,0.00,,2013-02-21 20:53:00,
2013-02-21 13:02:00,50.0,-99.9,30.12,NE,46,1.0,0.0,-999,0.00,,,0.00,,2013-02-21 21:02:00,
2013-02-21 13:12:00,50.0,-99.9,30.11,NE,49,0.0,0.0,-999,0.00,,,0.00,,2013-02-21 21:12:00,
2013-02-21 13:22:00,50.0,-99.9,30.11,NE,49,0.0,0.0,-999,0.00,,,0.00,,2013-02-21 21:22:00,
2013-02-21 13:32:00,50.0,-99.9,30.11,ENE,62,0.0,0.0,-999,0.00,,,0.00,,2013-02-21 21:32:00,
2013-02-21 13:42:00,51.0,-99.9,30.11,ENE,68,0.0,0.0,-999,0.00,,,0.00,,2013-02-21 21:42:00,
2013-02-21 13:52:00,51.0,-99.9,30.11,ENE,68,0.0,0.0,-999,0.00,,,0.00,,2013-02-21 21:52:00,
2013-02-21 14:01:00,50.0,-99.9,30.11,NE,44,0.0,0.0,-999,0.00,,,0.00,,2013-02-21 22:01:00,
2013-02-21 14:11:00,50.0,-99.9,30.11,NE,44,0.0,0.0,-999,0.00,,,0.00,,2013-02-21 22:11:00,
2013-02-21 14:22:00,51.0,-99.9,30.11,East,83,0.0,0.0,-999,0.00,,,0.00,,2013-02-21 22:22:00,
2013-02-21 14:32:00,51.0,-99.9,30.11,East,86,1.0,0.0,-999,0.00,,,0.00,,2013-02-21 22:32:00,
2013-02-21 14:42:00,51.0,-99.9,30.12,ESE,113,1.0,0.0,-999,0.00,,,0.00,,2013-02-21 22:42:00,
2013-02-21 14:52:00,51.0,-99.9,30.12,ESE,113,1.0,0.0,-999,0.00,,,0.00,,2013-02-21 22:52:00,
2013-02-21 15:01:00,52.0,-99.9,30.12,ENE,73,0.0,0.0,-999,0.00,,,0.00,,2013-02-21 23:01:00,
2013-02-21 15:11:00,52.0,-99.9,30.12,ENE,73,0.0,0.0,-999,0.00,,,0.00,,2013-02-21 23:11:00,
2013-02-21 15:21:00,51.0,-99.9,30.12,East,89,0.0,0.0,-999,0.00,,,0.00,,2013-02-21 23:21:00,
2013-02-21 15:32:00,51.0,-99.9,30.12,East,89,0.0,0.0,-999,0.00,,,0.00,,2013-02-21 23:32:00,
2013-02-21 15:42:00,51.0,-99.9,30.12,East,89,0.0,0.0,-999,0.00,,,0.00,,2013-02-21 23:42:00,
2013-02-21 15:53:00,52.0,-99.9,30.11,East,83,0.0,0.0,-999,0.00,,,0.00,,2013-02-21 23:53:00,
2013-02-21 16:02:00,51.0,-99.9,30.11,East,96,0.0,0.0,-999,0.00,,,0.00,,2013-02-22 00:02:00,
2013-02-21 16:11:00,51.0,-99.9,30.11,East,96,0.0,0.0,-999,0.00,,,0.00,,2013-02-22 00:11:00,
2013-02-21 16:22:00,51.0,-99.9,30.12,NE,39,0.0,0.0,-999,0.00,,,0.00,,2013-02-22 00:22:00,
2013-02-21 16:32:00,52.0,-99.9,30.12,East,82,0.0,0.0,-999,0.00,,,0.00,,2013-02-22 00:32:00,
2013-02-21 16:42:00,52.0,-99.9,30.12,East,82,0.0,0.0,-999,0.00,,,0.00,,2013-02-22 00:42:00,
2013-02-21 16:52:00,50.0,-99.9,30.12,East,82,0.0,0.0,-999,0.00,,,0.00,,2013-02-22 00:52:00,
2013-02-21 17:01:00,50.0,-99.9,30.12,NNE,30,0.0,0.0,-999,0.00,,,0.00,,2013-02-22 01:01:00,
2013-02-21 17:11:00,50.0,-99.9,30.12,NNE,30,0.0,0.0,-999,0.00,,,0.00,,2013-02-22 01:11:00,
2013-02-21 17:22:00,49.0,-99.9,30.13,NNE,30,0.0,0.0,-999,0.00,,,0.00,,2013-02-22 01:22:00,
2013-02-21 17:32:00,49.0,-99.9,30.13,NNE,30,0.0,0.0,-999,0.00,,,0.00,,2013-02-22 01:32:00,
2013-02-21 17:42:00,48.0,-99.9,30.14,NNE,30,0.0,0.0,-999,0.00,,,0.00,,2013-02-22 01:42:00,
2013-02-21 17:52:00,48.0,-99.9,30.14,NNE,30,0.0,0.0,-999,0.00,,,0.00,,2013-02-22 01:52:00,
2013-02-21 18:02:00,45.0,-99.9,30.14,NNE,30,0.0,0.0,-999,0.00,,,0.00,,2013-02-22 02:02:00,
2013-02-21 18:11:00,44.0,-99.9,30.14,NNE,30,0.0,0.0,-999,0.00,,,0.00,,2013-02-22 02:11:00,
2013-02-21 18:22:00,44.0,-99.9,30.14,NNE,30,0.0,0.0,-999,0.00,,,0.00,,2013-02-22 02:22:00,
2013-02-21 18:32:00,43.0,-99.9,30.14,NNE,30,0.0,0.0,-999,0.00,,,0.00,,2013-02-22 02:32:00,
2013-02-21 18:42:00,43.0,-99.9,30.14,NNE,30,0.0,0.0,-999,0.00,,,0.00,,2013-02-22 02:42:00,
2013-02-21 18:52:00,43.0,-99.9,30.14,NNE,30,0.0,0.0,-999,0.00,,,0.00,,2013-02-22 02:52:00,
2013-02-21 19:02:00,43.0,-99.9,30.14,NNE,30,0.0,0.0,-999,0.00,,,0.00,,2013-02-22 03:02:00,
2013-02-21 19:11:00,43.0,-99.9,30.14,NNE,30,0.0,0.0,-999,0.00,,,0.00,,2013-02-22 03:11:00,
2013-02-21 19:22:00,43.0,-99.9,30.14,NNE,30,0.0,0.0,-999,0.00,,,0.00,,2013-02-22 03:22:00,
2013-02-21 19:32:00,40.0,-99.9,30.15,NNE,30,0.0,0.0,-999,0.00,,,0.00,,2013-02-22 03:32:00,
2013-02-21 19:42:00,40.0,-99.9,30.15,NNE,30,0.0,0.0,-999,0.00,,,0.00,,2013-02-22 03:42:00,
2013-02-21 19:52:00,39.0,-99.9,30.16,NNE,30,0.0,0.0,-999,0.00,,,0.00,,2013-02-22 03:52:00,
2013-02-21 20:02:00,42.0,-99.9,30.16,NNE,30,0.0,0.0,-999,0.00,,,0.00,,2013-02-22 04:02:00,
2013-02-21 20:11:00,44.0,-99.9,30.16,NNE,30,0.0,0.0,-999,0.00,,,0.00,,2013-02-22 04:11:00,
2013-02-21 20:22:00,44.0,-99.9,30.16,NNE,30,0.0,0.0,-999,0.00,,,0.00,,2013-02-22 04:22:00,
2013-02-21 20:32:00,44.0,-99.9,30.17,NNE,30,0.0,0.0,-999,0.00,,,0.00,,2013-02-22 04:32:00,
2013-02-21 20:42:00,43.0,-99.9,30.16,NNE,30,0.0,0.0,-999,0.00,,,0.00,,2013-02-22 04:42:00,
2013-02-21 20:52:00,43.0,-99.9,30.16,NNE,30,0.0,0.0,-999,0.00,,,0.00,,2013-02-22 04:52:00,
2013-02-21 21:02:00,43.0,-99.9,30.16,NNE,30,0.0,0.0,-999,0.00,,,0.00,,2013-02-22 05:02:00,
2013-02-21 21:12:00,43.0,-99.9,30.16,NNE,30,0.0,0.0,-999,0.00,,,0.00,,2013-02-22 05:12:00,
2013-02-21 21:22:00,41.0,-99.9,30.16,NNE,30,0.0,0.0,-999,0.00,,,0.00,,2013-02-22 05:22:00,
2013-02-21 21:32:00,40.0,-99.9,30.17,NNE,30,0.0,0.0,-999,0.00,,,0.00,,2013-02-22 05:32:00,
2013-02-21 21:42:00,42.0,-99.9,30.17,NNE,30,0.0,0.0,-999,0.00,,,0.00,,2013-02-22 05:42:00,
2013-02-21 21:52:00,42.0,-99.9,30.17,NNE,30,0.0,0.0,-999,0.00,,,0.00,,2013-02-22 05:52:00,
2013-02-21 22:02:00,42.0,-99.9,30.18,NNE,30,0.0,0.0,-999,0.00,,,0.00,,2013-02-22 06:02:00,
2013-02-21 22:12:00,42.0,-99.9,30.19,NNE,30,0.0,0.0,-999,0.00,,,0.00,,2013-02-22 06:12:00,
2013-02-21 22:22:00,42.0,-99.9,30.19,NNE,30,0.0,0.0,-999,0.00,,,0.00,,2013-02-22 06:22:00,
2013-02-21 22:32:00,42.0,-99.9,30.19,NNE,30,0.0,0.0,-999,0.00,,,0.00,,2013-02-22 06:32:00,
2013-02-21 22:42:00,42.0,-99.9,30.19,NNE,30,0.0,0.0,-999,0.00,,,0.00,,2013-02-22 06:42:00,
2013-02-21 22:52:00,42.0,-99.9,30.19,NNE,30,0.0,0.0,-999,0.00,,,0.00,,2013-02-22 06:52:00,
2013-02-21 23:01:00,42.0,-99.9,30.19,NNE,30,0.0,0.0,-999,0.00,,,0.00,,2013-02-22 07:01:00,
2013-02-21 23:11:00,43.0,-99.9,30.19,NNE,30,0.0,0.0,-999,0.00,,,0.00,,2013-02-22 07:11:00,
2013-02-21 23:22:00,43.0,-99.9,30.19,NNE,30,0.0,0.0,-999,0.00,,,0.00,,2013-02-22 07:22:00,
2013-02-21 23:32:00,43.0,-99.9,30.19,NNE,30,0.0,0.0,-999,0.00,,,0.00,,2013-02-22 07:32:00,
2013-02-21 23:42:00,43.0,-99.9,30.20,NNE,30,0.0,0.0,-999,0.00,,,0.00,,2013-02-22 07:42:00,
2013-02-21 23:52:00,43.0,-99.9,30.20,NNE,30,0.0,0.0,-999,0.00,,,0.00,,2013-02-22 07:52:00,